Date String (YYYY-MM-DD hh:mm:ss) UTC,Instrument flags,Ambient pressure (hPa),Sample flow (lpm),Bypass flow (lpm),Sample temperature (°C),Ambient temperature (°C),ASC tube jacket temperature (°C),LED temperature (°C),Box temperature (°C),Sample RH (%),Span deviation,Mass concentration (μg/m³),Mass concentration (μg/m³),Mass concentration (μg/m³)
DateTimeUTC,F1_M11,P_M11,Q1_M11,Q2_M11,T1_M11,T2_M11,T3_M11,T4_M11,T5_M11,U1_M11,ZSPAN_M11,X0_M11,X2_M11,X1_M11
2022-10-10 07:00:00,,0829.9,5.00,0.00,29.1,27.4,00.0,38.0,30.9,11.7,0000.0,0008.03,0004.87,0004.38
2022-10-10 07:01:00,,0829.9,4.99,0.00,29.1,27.4,00.0,38.0,30.9,11.6,0000.0,0007.99,0004.86,0004.38
2022-10-10 07:02:00,,0829.9,5.01,0.00,29.1,27.4,00.0,38.0,30.8,11.7,0000.0,0008.29,0004.88,0004.39
2022-10-10 07:03:00,,0829.9,4.99,0.00,29.1,27.4,00.0,38.0,30.8,11.6,0000.0,0008.92,0004.90,0004.40
2022-10-10 07:04:00,,0829.9,5.00,0.00,29.1,27.3,00.0,38.0,30.8,11.5,0000.0,0008.83,0004.86,0004.39
2022-10-10 07:05:00,,0829.9,5.01,0.00,29.1,27.3,00.0,37.9,30.8,11.5,0000.0,0008.89,0004.88,0004.39
2022-10-10 07:06:00,,0829.8,5.00,0.00,29.1,27.3,00.0,37.9,30.8,11.5,0000.0,0008.99,0004.90,0004.39
2022-10-10 07:07:00,,0829.9,4.99,0.00,29.1,27.3,00.0,37.9,30.8,11.5,0000.0,0009.02,0004.89,0004.39
2022-10-10 07:08:00,,0829.8,5.00,0.00,29.0,27.3,00.0,37.9,30.8,11.5,0000.0,0008.81,0004.88,0004.39
2022-10-10 07:09:00,,0829.8,5.00,0.00,29.0,27.3,00.0,37.9,30.8,11.5,0000.0,0008.72,0004.91,0004.40
2022-10-10 07:10:00,,0829.8,4.99,0.00,29.0,27.3,00.0,37.9,30.8,11.5,0000.0,0008.61,0004.92,0004.42
2022-10-10 07:11:00,,0829.8,5.01,0.00,29.0,27.3,00.0,37.9,30.8,11.5,0000.0,0008.76,0004.96,0004.43
2022-10-10 07:12:00,,0829.8,5.00,0.00,29.0,27.3,00.0,37.9,30.7,11.5,0000.0,0008.80,0004.96,0004.44
2022-10-10 07:13:00,,0829.8,5.00,0.00,29.0,27.3,00.0,37.9,30.8,11.5,0000.0,0008.86,0004.97,0004.45
2022-10-10 07:14:00,,0829.8,5.01,0.00,29.0,27.3,00.0,37.9,30.8,11.5,0000.0,0009.11,0005.00,0004.48
2022-10-10 07:15:00,,0829.8,4.99,0.00,29.0,27.2,00.0,37.9,30.7,11.5,0000.0,0009.37,0005.04,0004.50
2022-10-10 07:16:00,,0829.8,5.00,0.00,29.0,27.2,00.0,37.8,30.7,11.5,0000.0,0009.29,0005.03,0004.52
2022-10-10 07:17:00,,0829.8,5.01,0.00,29.0,27.2,00.0,37.8,30.7,11.5,0000.0,0009.32,0005.03,0004.54
2022-10-10 07:18:00,,0829.8,4.99,0.00,29.0,27.2,00.0,37.8,30.7,11.5,0000.0,0009.23,0005.02,0004.55
2022-10-10 07:19:00,,0829.7,5.00,0.00,29.0,27.2,00.0,37.8,30.7,11.5,0000.0,0009.70,0005.03,0004.57
2022-10-10 07:20:00,,0829.7,5.00,0.00,28.9,27.2,00.0,37.8,30.7,11.4,0000.0,0010.21,0005.03,0004.57
2022-10-10 07:21:00,,0829.6,4.98,0.00,28.9,27.2,00.0,37.8,30.7,11.4,0000.0,0010.46,0005.03,0004.57
2022-10-10 07:22:00,,0829.6,5.02,0.00,28.9,27.2,00.0,37.8,30.7,11.5,0000.0,0010.40,0005.04,0004.58
2022-10-10 07:23:00,,0829.6,4.99,0.00,28.9,27.2,00.0,37.8,30.7,11.4,0000.0,0010.41,0005.05,0004.59
2022-10-10 07:24:00,,0829.7,5.00,0.00,28.9,27.2,00.0,37.8,30.6,11.4,0000.0,0010.24,0005.07,0004.59
2022-10-10 07:25:00,,0829.7,5.01,0.00,28.9,27.2,00.0,37.8,30.6,11.4,0000.0,0009.53,0005.07,0004.58
2022-10-10 07:26:00,,0829.7,4.98,0.00,28.9,27.2,00.0,37.8,30.7,11.4,0000.0,0009.26,0005.07,0004.58
2022-10-10 07:27:00,,0829.6,5.01,0.00,28.9,27.2,00.0,37.8,30.6,11.4,0000.0,0009.29,0005.07,0004.57
2022-10-10 07:28:00,,0829.7,4.99,0.00,28.9,27.2,00.0,37.8,30.6,11.3,0000.0,0009.27,0005.03,0004.57
2022-10-10 07:29:00,,0829.6,5.01,0.00,28.9,27.2,00.0,37.7,30.6,11.4,0000.0,0009.25,0005.04,0004.58
2022-10-10 07:30:00,,0829.6,5.00,0.00,28.9,27.2,00.0,37.7,30.6,11.4,0000.0,0009.08,0005.04,0004.58
2022-10-10 07:31:00,,0829.6,5.00,0.00,28.9,27.2,00.0,37.7,30.6,11.4,0000.0,0008.58,0005.04,0004.58
2022-10-10 07:32:00,,0829.6,5.00,0.00,28.9,27.1,00.0,37.7,30.6,11.4,0000.0,0008.56,0005.05,0004.57
2022-10-10 07:33:00,,0829.6,4.99,0.00,28.8,27.1,00.0,37.7,30.6,11.4,0000.0,0009.39,0005.02,0004.55
2022-10-10 07:34:00,,0829.6,5.01,0.00,28.8,27.1,00.0,37.7,30.6,11.4,0000.0,0009.53,0005.01,0004.54
2022-10-10 07:35:00,,0829.6,4.99,0.00,28.8,27.1,00.0,37.7,30.6,11.4,0000.0,0009.47,0004.99,0004.54
2022-10-10 07:36:00,,0829.5,5.00,0.00,28.8,27.1,00.0,37.7,30.6,11.4,0000.0,0009.39,0004.94,0004.53
2022-10-10 07:37:00,,0829.5,5.01,0.00,28.8,27.1,00.0,37.7,30.5,11.3,0000.0,0009.44,0004.94,0004.53
2022-10-10 07:38:00,,0829.6,4.98,0.00,28.8,27.1,00.0,37.7,30.5,11.4,0000.0,0009.39,0004.93,0004.53
2022-10-10 07:39:00,,0829.6,5.01,0.00,28.8,27.1,00.0,37.7,30.5,11.4,0000.0,0009.27,0004.93,0004.53
2022-10-10 07:40:00,,0829.6,4.99,0.00,28.8,27.1,00.0,37.7,30.5,11.3,0000.0,0009.32,0004.95,0004.53
2022-10-10 07:41:00,,0829.5,5.00,0.00,28.8,27.1,00.0,37.7,30.5,11.3,0000.0,0009.05,0004.93,0004.51
2022-10-10 07:42:00,,0829.6,5.01,0.00,28.8,27.1,00.0,37.7,30.5,11.4,0000.0,0008.88,0004.90,0004.50
2022-10-10 07:43:00,,0829.6,4.99,0.00,28.8,27.1,00.0,37.6,30.5,11.3,0000.0,0008.86,0004.86,0004.48
2022-10-10 07:44:00,,0829.5,5.01,0.00,28.8,27.1,00.0,37.6,30.5,11.3,0000.0,0008.06,0004.84,0004.46
2022-10-10 07:45:00,,0829.5,4.99,0.00,28.8,27.1,00.0,37.6,30.5,11.3,0000.0,0007.89,0004.84,0004.46
2022-10-10 07:46:00,,0829.5,5.01,0.00,28.7,27.1,00.0,37.6,30.5,11.3,0000.0,0008.41,0004.81,0004.43
2022-10-10 07:47:00,,0829.5,4.99,0.00,28.7,27.0,00.0,37.6,30.5,11.3,0000.0,0008.57,0004.85,0004.41
2022-10-10 07:48:00,,0829.5,5.02,0.00,28.7,27.1,00.0,37.6,30.5,11.3,0000.0,0009.82,0004.81,0004.39
2022-10-10 07:49:00,,0829.5,4.99,0.00,28.7,27.1,00.0,37.6,30.5,11.3,0000.0,0010.08,0004.81,0004.37
2022-10-10 07:50:00,,0829.5,5.01,0.00,28.7,27.1,00.0,37.6,30.5,11.3,0000.0,0010.24,0004.83,0004.35
2022-10-10 07:51:00,,0829.4,5.01,0.00,28.7,27.0,00.0,37.6,30.5,11.3,0000.0,0010.25,0004.83,0004.33
2022-10-10 07:52:00,,0829.5,4.98,0.00,28.7,27.0,00.0,37.6,30.5,11.3,0000.0,0010.18,0004.80,0004.31
2022-10-10 07:53:00,,0829.5,5.01,0.00,28.7,27.1,00.0,37.6,30.5,11.3,0000.0,0010.18,0004.77,0004.30
2022-10-10 07:54:00,,0829.4,4.99,0.00,28.7,27.0,00.0,37.6,30.4,11.3,0000.0,0010.77,0004.76,0004.29
2022-10-10 07:55:00,,0829.5,5.01,0.00,28.7,27.0,00.0,37.6,30.5,11.3,0000.0,0011.07,0004.76,0004.29
2022-10-10 07:56:00,,0829.5,4.99,0.00,28.7,27.0,00.0,37.6,30.5,11.3,0000.0,0010.98,0004.76,0004.28
2022-10-10 07:57:00,,0829.5,5.01,0.00,28.7,27.0,00.0,37.5,30.5,11.3,0000.0,0010.69,0004.77,0004.29
2022-10-10 07:58:00,,0829.5,4.99,0.00,28.7,27.1,00.0,37.5,30.5,11.3,0000.0,0011.34,0004.74,0004.28
2022-10-10 07:59:00,,0829.5,5.00,0.00,28.7,27.0,00.0,37.5,30.4,11.3,0000.0,0010.31,0004.72,0004.27
